#timestamp,LO_Frequency,Hit 
1499220015.8,286047048.9,N
1499220035.6,286047048.9,N
1499220055.4,286047049.9,N
1499220075.2,286047049.5,N
1499220095.1,286047048.2,N
1499220096.0,286047048.2,N
1499220115.8,286047048.3,N
1499220135.6,286047050.3,N
1499220155.5,286047050.8,N
1499220175.3,286047048.1,N
1499220195.1,286047051.6,N
1499220215.9,286047049.5,N
1499220235.7,286047051.7,N
1499220255.5,286047054.0,N
1499220275.4,286047053.1,N
1499220295.2,286047055.2,N
1499220315.0,286047055.1,N
1499220315.9,286047055.1,N
1499220335.8,286047053.4,N
1499220355.6,286047053.3,N
1499220375.4,286047051.5,N
1499220395.3,286047053.8,N
1499220415.1,286047053.2,N
1499220416.0,286047053.2,N
1499220435.8,286047052.8,N
1499220455.7,286047052.5,N
1499220475.5,286047052.9,N
1499220495.3,286047055.5,N
1499220515.1,286047053.6,N
1499220535.9,286047053.7,N
1499220555.7,286047052.8,N
1499220575.5,286047051.0,N
1499220595.4,286047053.1,N
1499220615.2,286047054.8,N
1499220635.0,286047055.4,N
1499220635.9,286047055.4,N
1499220655.8,286047056.8,N
1499220675.6,286047058.7,N
1499220695.4,286047056.7,N
1499220715.3,286047055.8,N
1499220735.1,286047056.4,N
1499220736.0,286047056.4,N
1499220755.8,286047054.3,N
1499220775.7,286047055.6,N
1499220795.5,286047056.4,N
1499220815.3,286047056.9,N
1499220835.2,286047055.7,N
1499220855.9,286047056.5,N
1499220875.7,286047054.5,N
1499220895.5,286047057.4,N
1499220915.4,286047059.0,N
1499220935.2,286047060.7,N
1499220955.0,286047060.8,N
1499220955.9,286047060.8,N
1499220975.8,286047063.1,N
1499220995.6,286047062.1,N
1499221015.4,286047061.0,N
1499221035.3,286047061.1,N
1499221055.1,286047059.7,N
1499221075.8,286047057.8,N
1499221095.7,286047060.0,N
1499221115.5,286047057.9,N
1499221135.3,286047057.9,N
1499221155.2,286047059.6,N
1499221175.9,286047059.1,N
1499221195.7,286047060.3,N
1499221215.6,286047059.5,N
1499221235.4,286047060.4,N
1499221255.2,286047060.1,N
1499221275.0,286047061.6,N
1499221275.9,286047061.6,N
1499221295.8,286047060.9,N
1499221315.6,286047060.9,N
1499221335.4,286047060.5,N
1499221355.3,286047063.0,N
1499221375.1,286047062.6,N
1499221376.0,286047062.6,N
1499221395.8,286047063.4,N
1499221415.7,286047063.6,N
1499221435.5,286047061.6,N
1499221455.3,286047060.8,N
1499221475.2,286047058.9,N
1499221495.9,286047061.0,N
1499221515.7,286047062.8,N
1499221535.6,286047062.6,N
1499221555.4,286047063.5,N
1499221575.2,286047062.3,N
1499221595.0,286047062.5,N
1499221595.9,286047062.5,N
1499221615.8,286047063.6,N
1499221635.6,286047060.9,N
1499221655.4,286047060.9,N
1499221675.3,286047060.9,N
1499221695.1,286047061.2,N
1499221715.8,286047063.3,N
1499221735.7,286047062.1,N
1499221755.5,286047064.0,N
1499221775.3,286047062.2,N
1499221795.2,286047060.5,N
1499221815.9,286047065.2,N
1499221835.7,286047062.5,N
1499221855.6,286047064.9,N
1499221875.4,286047064.6,N
1499221895.2,286047065.3,N
1499221915.0,286047067.1,N
1499221915.9,286047067.1,N
1499221935.8,286047067.3,N
1499221955.6,286047067.7,N
1499221975.4,286047066.0,N
1499221995.3,286047066.5,N
1499222015.1,286047066.8,N
1499222035.8,286047068.0,N
1499222055.7,286047069.7,N
1499222075.5,286047071.1,N
1499222095.3,286047071.5,N
1499222115.2,286047071.1,N
1499222135.9,286047070.5,N
1499222155.7,286047069.1,N
1499222175.6,286047068.4,N
1499222195.4,286047067.8,N
1499222215.2,286047068.1,N
1499222235.0,286047067.2,N
1499222235.9,286047067.2,N
1499222255.8,286047067.4,N
1499222275.6,286047068.6,N
1499222295.4,286047069.3,N
1499222315.3,286047071.4,N
1499222335.1,286047070.6,N
1499222355.8,286047071.0,N
1499222375.7,286047070.7,N
1499222395.5,286047068.7,N
1499222415.3,286047072.0,N
1499222435.2,286047070.5,N
1499222455.9,286047069.0,N
1499222475.7,286047068.9,N
1499222495.6,286047071.5,N
1499222515.4,286047071.2,N
1499222535.2,286047068.9,N
1499222555.0,286047069.4,N
1499222556.0,286047069.4,N
1499222575.8,286047069.8,N
1499222595.6,286047069.4,N
1499222615.4,286047071.4,N
1499222635.3,286047069.4,N
1499222655.1,286047067.2,N
1499222675.8,286047068.8,N
1499222695.7,286047071.5,N
1499222715.5,286047071.6,N
1499222735.3,286047068.9,N
1499222755.2,286047071.4,N
1499222775.9,286047069.7,N
1499222795.7,286047066.9,N
1499222815.6,286047069.3,N
1499222835.4,286047070.5,N
1499222855.2,286047070.4,N
1499222875.1,286047072.0,N
1499222876.0,286047072.0,N
1499222895.8,286047071.0,N
1499222915.6,286047073.2,Y
1499222935.5,286047024.9,N
1499222955.3,286047026.6,N
1499222975.1,286047024.3,N
1499222995.9,286047025.2,N
1499223015.7,286047022.9,N
1499223035.5,286047025.0,N
1499223055.3,286047023.8,N
1499223075.2,286047026.6,N
1499223095.0,286047026.0,N
1499223095.9,286047026.0,N
1499223115.7,286047024.2,N
1499223135.6,286047024.2,N
1499223155.4,286047024.8,N
1499223175.2,286047022.2,N
1499223195.1,286047024.1,N
1499223196.0,286047024.1,N
1499223215.8,286047022.7,N
1499223235.6,286047026.4,N
1499223255.5,286047026.4,N
1499223275.3,286047024.0,N
1499223295.1,286047024.1,N
1499223315.9,286047022.5,N
1499223335.6,286047024.3,N
1499223355.5,286047025.6,N
1499223375.3,286047026.0,N
1499223395.1,286047023.8,N
1499223415.9,286047026.8,N
1499223435.7,286047026.6,N
1499223455.5,286047024.9,N
1499223475.4,286047024.4,N
1499223495.2,286047025.7,N
1499223515.0,286047025.9,N
1499223515.9,286047025.9,N
1499223535.8,286047028.0,N
1499223555.6,286047025.6,N
1499223575.4,286047026.1,N
1499223595.2,286047023.9,N
